Погода в Курске

Погода в Курске : погода сейчас, прогноз погоды и архив. Всё, что Вы хотите узнать о погоде в Курске!

Хотите узнать прогноз погоды в Курске? Тогда Вам сюда: Погода в Курске

Поиск расширенной информации на нашем сайте:

Другие новости

Новости СМИ2

Главная страница сайта

Новости сайта

03.07.2017

Напоминаем, что на нашем специализированном сайте Метеоцентр.Азия вы можете получить высокодетализированные автоматические прогнозы погоды по пунктам России, СНГ и мира в авиационном формате (включающие направление и скорость ветра, видимость, явления погоды, количество и форму облачности, нижнюю и верхнюю границу облачности).


Погода в Курске - сегодня

Время (UTC), дата Ветер
(°,м/с) 
Видим.   Явления Облачность Т
(°С)
Тd
(°С)
f(%) Тe
(°С)
Pmin
(гПа)
dP
(гПа)
Po
(мм)
O2
(г/м3)
Тmin Tmax R s Состояние
почвы
03 20.07.17 040 (СВ) 10 км    1/0 средняя 
[Ac As]
+15.7 +8.3 61 +16  1017.2  0.1  741  281  +14.6         
06 20.07.17 050 (СВ) 10 км    ясно 
+20.2 +10.2 53 +22  1016.9  0.2  741  276  +14.6        сухая 
09 20.07.17 010 (С) 10 км    3/3 1000 м 
[Cu hum]
+23.1 +7.5 37 +23  1015.7  -1  740  274           
12 20.07.17 070 (В) 10 км    8/6 1000 м верхняя 
[Cu hum|Ci fib]
+24.2 +6.9 33 +24  1014.7  -0.9  740  273           
15 20.07.17 070 (В) 10 км    8/3 1000 м верхняя 
[Cu hum|Ci fib]
+24 +7 34 +24  1013.7  -1  739  273           
18 20.07.17 тихо ()   10 км    9/8 600 м верхняя 
[Sc diur, vesp|Ci fib]
+20.1 +8.2 46 +20  1014.3  0.3  739  276    +25.3       
21 20.07.17 080 (В) 10 км    8/0 верхняя 
[Ci fib]
+19 +9.4 54 +22  1014.4  739  277           
00 21.07.17 160 (Ю) 10 км    8/3 600 м верхняя 
[Sc|Ci fib]
+15.5 +10.6 73 +19  1014.8  739  280           
03 21.07.17 170 (Ю) 10 км    6/4 600 м верхняя 
[Sc|Ci fib]
+18 +9.8 59 +20  1014.7  0.2  739  278  +15.5         
06 21.07.17 170 (Ю) 10 км    1/0 средняя 
[Ac trans]
+22.1 +12.3 54 +27  1014.3  739  273  +15.5        сухая 
09 21.07.17 230 (ЮЗ) 10 км    3/0 верхняя 
[Cu hum|Ci fib]
+26 +10.1 37 +28  1013.9  739  270           
12 21.07.17 220 (ЮЗ) 10 км    8/4 1000 м средняя, верхняя 
[Cu med, cong|Ac trans|Ci fib]
+27.3 +11.3 37 +31  1013.4  -0.4  739  269           
15 21.07.17 260 (З) 10 км    8/0 средняя 
[Ac trans]
+25.2 +13.2 47 +31  1013  -0.6  739  270           
18 21.07.17 тихо ()   10 км    9/4 600 м средняя, верхняя 
[Sc|Ac trans|Ci fib]
+22.7 +13.6 56 +29  1013.6  0.4  739  272    +27.7       
21 21.07.17 тихо ()   10 км    ясно 
+19.8 +13.7 68 +27  1014  0.1  739  275           
00 22.07.17 тихо ()   10 км    8/0 верхняя 
[Ci fib]
+18.4 +13.5 73 +25  1013.7  -0.4  739  276           
03 22.07.17 070 (В) н/о    н/о 
+18.2 +14.6 80 +27  1013.2  -0.5  738  276  +16.7         
06 22.07.17 140 (ЮВ) 10 км    8/3 1000 м средняя, верхняя 
[Sc|Ac lent|Ci sp]
+22.8 +15 61 +32  1012.2  -0.6  738  271  +16.7        сухая 
09 22.07.17 040 (СВ) 10 км    10/3 1000 м верхняя 
[Cu hum|Cc]
+23.5 +16.4 64 +35  1011.8  -0.3  738  270           
12 22.07.17 320 (СЗ) 10 км  гроза, ливневой дождь  9/6 600 м кучево-дожд., верхняя 
[Cb calv|Ci fib]
+24.8 +18.5 68 +41  1010.6  -1  737  268           
15 22.07.17 360 (С) 1{14}  10 км  гроза без осадков{ливн. осадки}  8/3 600 м кучево-дожд., верхняя 
[Cb calv|Ci sp]
+24.4 +18.4 69 +40  1011.1  0.4  737  268         
18 22.07.17 040 (СВ) 4000 м  гроза, ливневой дождь  10/10 600 м кучево-дожд. 
[Cb cap]
+19 +17.5 91 +34  1011.9  -0.2  737  274    +28.8  12     
21 22.07.17 020 (С) 4000 м  дымка{гроза, ливн. осадки}  10/10 600 м 
[Sc]
+18.3 +16.9 92 +33  1012.1  0.1  737  275           
00 23.07.17 340 (С) 1000 м  дымка{гроза, ливн. осадки}  ?/? 300 
+16 +14.9 93 +25  1012.3  737  278           
03 23.07.17 340 (С) 4000 м  дымка{ливн. осадки}  10/10 600 м 
[Sc]
+13.9 +12.4 91 +19  1013.6  738  281  +13.9       
Время (UTC), дата Ветер
(°,м/с) 
Видим.   Явления Облачность Т
(°С)
Тd
(°С)
f(%) Тe
(°С)
Pmin
(гПа)
dP
(гПа)
Po
(мм)
O2
(г/м3)
Тmin Tmax R s Состояние
почвы

Для получения пояснительной информации подведите курсор к названию столбца.

ПОГОДА в Курске - архив

Всё, что Вы хотите узнать о погоде в Курске - удобно и подробно!

Выберите нужную дату (начиная с 1 января 2015* года) и нажмите кнопку "Найти".
Будут отображены архивные сводки погоды по пункту Курск, начиная с указанной даты.


Отображать данные в формате CSV (для использования в таблицах Excel)


Внимание! Наш архив погоды предназначен исключительно для личного некоммерческого использования в познавательных целях. Если Вам необходимы официальные справки о состоянии погоды (для производственных, юридических, коммерческих и т.п. целей), обращайтесь в органы Росгидромета.

*Примечание: данная дата относится к архиву по метеостанциям СССР (Россия, СНГ, Балтия).
Архив по метеостанциям Зарубежной Европы и Азии (кроме Китая) хранится 10 дней, по другим регионам земного шара (Китай, Африка, Америка, Австралия, Океания) - 1 день.

Курск - район местоположения метеостанции


Название, широта, долгота, высота метеостанции:
Курск 51.8°ш. 36.2°д. 247 м над ур. моря [Российская Федерация]

Дополнительная информация

В oтличие oт бoльшинства пoгoдных сайтoв мы публикуем пoдрoбную метеoинфoрмацию в детальнoм прoфессиoнальнoм фoрмате.

Характеристики температуры и влажнoсти вoздуха измеряются на высoте 2 м в тени вдали oт зданий и деревьев.
Скoрoсть ветра измеряется на высoте 10 м (на урoвне рoста челoвека скoрoсть ветра ниже в 1.5-2 раза). Если метеoстанция нахoдится в гoрoде или в лесу, тo скoрoсть ветра занижена на 2-4 м/с пo сравнению с oткрытым местoм. Скoрoсть ветра над акватoриями крупных рек и oзёр, а также на вершинах хoлмoв на 2-5 м/с выше, чем в oбычных услoвиях.
Атмoсфернoе давление в разных тoчках местнoсти мoжет значительнo oтличаться oт давления на метеoстанции, в зависимoсти oт услoвий рельефа (при пoдъёме на 10 м давление пoнижается примернo на 1 мм рт.ст.).